NOAA 16 DEB, 41502

Orbit data source: Space-Track

NOAA 16 DEB, 41502 is space debris in SSO originally from a launch on Thu, 21 Sep 2000 UTC launched from the Air Force Western Test Range (AFWTR). Debris objects in space refer to the collection of defunct objects orbiting the Earth. Examples of debris include non-operational satellites, rocket bodies, and fragments generated from explosions, collisions, or faulty payload assembly.

Loading next visibility...
Identifier
41502, 2000-055MA
Orbit
SSO
Country
Flag of USUS
Related business
Manufacturer
Unknown
Mission
Spacecraft
Bus & Motor
Unknown
Mass
Unknown
Launch date (UTC)
2000-09-21 (26 years ago)
Launch vehicle
Unknown
Launch site
Air Force Western Test Range (AFWTR)
Object type
Payload
Rocket body
Debris
Shape & HBR
Unknown shape, 0.1 m
Radar Cross Section
Small (<0.1 m²)

Expand to show TLE details & history
Last TLE update: 4 days ago

TLE from 4 days ago
0 NOAA 16 DEB
1 41502U 00055MA  26169.87431475  .00002043  00000-0  90475-3 0  9992
2 41502  98.6470 220.7783 0012009 117.1299 243.1106 14.24184009531570
Epoch: 2026-06-18T20:59Z
TLE epoch observation values (Epoch: 2026-06-18T20:59:00.794Z)
Latitude
-0.00003°
Longitude
-1.08639°
Altitude
818.073 km
Speed
7.442 km/s
True Right ascension
14h 43m 06s
True Declination
0° 00' 00"
Sunlit
Object was in full shadow at epoch
Visualization orbit readout
Latitude
Unknown
Longitude
Unknown
Altitude
Unknown
Speed
Unknown
Apparent Right ascension
Unknown
Apparent Declination
Unknown
Sunlit
N/A
Visualization observer readout
Local Sidereal Time
21:39:06
Azimuth
Unknown
Elevation
Unknown
Doppler factor
Unknown
Orbital elements
Apogee altitude
817.018 km
Perigee altitude
799.757 km
Semi-major axis
7,186.524 km
Eccentricity
0.0012
Inclination
98.647°
RAAN
220.7783°
Arg. of periapsis
117.1299°
True anomaly
242.98795°
Mean anomaly
243.1106°
Eccentric anomaly
243.04927°
Mean motion
3.56258 °/min
Orbital period
101.05 mins
BSTAR
0.00090475
Loading maneuver chart data...
Computing Atmospheric mass density...
Loading historical data...
Loading historical data...
Loading historical data...
Loading historical data...
Loading historical data...
Loading historical data...
Loading historical data...

Documentation

Showing up to 5 results
|